Flag for Germany Weather past 2 weeks in Dillenburg, Hesse, Germany

Now
36 °F

Drizzle. Broken clouds.


Feels Like: 27 °F
Forecast: 41 / 48 °F
Wind: 13 mph from Southwest

Location: Hessen

Current Time: Dec 21, 2014 at 2:44:52 PM

Latest Report: Dec 21, 2014 at 1:50 PM


Visibility: N/A

Pressure: 30.30 "Hg

Humidity: 100%

Dew point: 36 °F

Location of DillenburgLocation

Historic Weather in Dillenburg — Graph

°F

Dillenburg temperature yesterday

Maximum temperature yesterday: 37 °F (at 2:20 PM)
Minimum temperature yesterday: 34 °F (at 7:20 AM)
Average temperature yesterday: 35 °F

Past Weeks' High & Low Weather Summary

 TemperatureHumidityPressure
High50 °F (Dec 18, 6:50 PM)100% (Dec 6, 1:20 PM)30.36 "Hg (Dec 6, 1:20 PM)
Low30 °F (Dec 8, 6:20 PM)87% (Dec 7, 7:50 AM)29.47 "Hg (Dec 12, 3:20 PM)
Average36 °F98%29.92 "Hg
* Reported Dec 6 1:20 PM — Dec 21 1:50 PM, Dillenburg, Weather by CustomWeather, © 2014

Note: Actual official high and low records may vary slightly from our data, if they occured in-between our weather recording intervals... More about our weather records

Advertising

Dillenburg weather history for previous 24 hours

 ConditionsComfort  
Time TempWeatherWind HumidityBarometerVisibility
1:50 PM
Dec 21
36 °FDrizzle. Broken clouds.13 mph100%30.30 "HgN/A
1:20 PM36 °FDrizzle. Broken clouds.15 mph100%30.33 "Hg6 mi
12:50 PM36 °FLight rain. Broken clouds.14 mph100%30.33 "HgN/A
12:20 PM36 °FBroken clouds.16 mph100%30.36 "Hg6 mi
11:50 AM36 °FDrizzle. Broken clouds.14 mph100%30.36 "Hg5 mi
11:20 AM36 °FPartly sunny.16 mph100%30.36 "HgN/A
10:50 AM36 °FBroken clouds.12 mph100%30.36 "Hg6 mi
10:20 AM36 °FBroken clouds.15 mph100%30.36 "HgN/A
9:50 AM36 °FBroken clouds.16 mph100%30.36 "HgN/A
9:20 AM36 °FPartly sunny.16 mph100%30.36 "HgN/A
8:50 AM36 °FPartly sunny.15 mph100%30.36 "HgN/A
8:20 AM36 °FPassing clouds.15 mph100%30.36 "HgN/A
7:50 AM36 °FLight rain. Passing clouds.13 mph100%30.36 "HgN/A
7:20 AM36 °FLight rain. Passing clouds.13 mph100%30.36 "HgN/A
4:50 PM
Dec 20
36 °FRain. Fog.20 mph93%30.04 "Hg3 mi
4:20 PM37 °FRain. Partly sunny.22 mph93%30.04 "Hg4 mi
3:50 PM36 °FLight rain. Partly sunny.20 mph100%30.04 "HgN/A
3:20 PM37 °FLight rain. Partly sunny.18 mph93%30.04 "HgN/A
2:50 PM37 °FLight rain. Partly sunny.18 mph87%30.04 "HgN/A
2:20 PM37 °FSprinkles. Partly sunny.17 mph87%30.04 "HgN/A
Weather by CustomWeather, © 2014

See weather overviewHow to use our weather pages